This demonstration page uses our WeatherBlox Daily Observations layout. Learn more.

Left ArrowRight Arrow

38.83388, -104.82136

Hourly Observations for August 16, 2022

Temp ( °F °C ) Dew Point ( °F °C ) Humidity (%) Winds ( mph kmh ) Pressure ( in mb ) Visibility ( mi km ) Precip ( " mm )
12:54 am 00:54 Mostly Cloudy 62 16.7 55 12.8 78 78 WNW 10 17 30.00 1016 10 16 0.00 0.00
1:54 am 01:54 Cloudy 63 17.2 55 12.8 75 75 NNW 7 11 29.99 1016 10 16 0.00 0.00
2:54 am 02:54 Cloudy 63 17.2 55 12.8 75 75 Calm 29.99 1016 10 16 0.00 0.00
3:54 am 03:54 Cloudy 63 17.2 55 12.8 75 75 E 6 9 29.99 1016 10 16 0.00 0.00
4:54 am 04:54 Cloudy 64 17.8 55 12.8 73 73 ESE 3 6 30.07 1018 10 16 0.01 0.13
5:12 am 05:12 Cloudy 63 17.2 56 13.3 78 78 WSW 5 7 29.94 1014 10 16 0.00 0.00
5:54 am 05:54 Mostly Cloudy 61 16.1 57 13.9 87 87 W 7 11 30.06 1018 10 16 0.00 0.00
6:54 am 06:54 Mostly Cloudy 62 16.7 56 13.3 80 80 NW 7 11 30.07 1018 10 16 0.00 0.00
7:54 am 07:54 Mostly Cloudy 64 17.8 55 12.8 73 73 NW 8 13 30.07 1018 10 16 0.00 0.00
8:54 am 08:54 Mostly Cloudy 67 19.4 57 13.9 71 71 NNW 9 15 30.07 1018 10 16 0.00 0.00
9:54 am 09:54 Mostly Cloudy 73 22.8 57 13.9 57 57 VRB 5 7 30.06 1018 10 16 0.00 0.00
10:54 am 10:54 Mostly Cloudy 71 21.7 57 13.9 61 61 NE 9 15 30.07 1018 10 16 0.00 0.00
11:54 am 11:54 Mostly Cloudy 70 21.1 57 13.9 63 63 ESE 6 9 30.08 1019 10 16 0.00 0.00
12:54 pm 12:54 Mostly Cloudy 71 21.7 57 13.9 61 61 SSW 3 6 30.06 1018 10 16 0.00 0.00
1:33 pm 13:33 Cloudy with Heavy Rain 64 17.8 59 15 84 84 NW 7 11 29.97 1015 2 2 0.03 0.76
1:42 pm 13:42 Cloudy with Strong Thunderstorms 63 17.2 60 15.6 90 90 NW 6 9 29.98 1015 2 3 0.23 5.84
1:56 pm 13:56 Cloudy with Thunderstorms 63 17.2 59 15 87 87 N 3 6 29.99 1016 3 4 0.01 0.25
2:15 pm 14:15 Cloudy with Nearby Thunderstorms 63 17.2 59 15 87 87 NNW 5 7 29.99 1016 3 5 0.11 2.79
2:28 pm 14:28 Cloudy with Nearby Thunderstorms 63 17.2 59 15 87 87 ENE 9 15 30.00 1016 2 3 0.17 4.32
2:37 pm 14:37 Cloudy with Light Rain 62 16.7 58 14.4 86 86 ENE 7 11 30.01 1016 3 5 0.21 5.33
2:54 pm 14:54 Cloudy with Light Rain 62 16.7 58 14.4 86 86 NE 10 17 30.12 1020 2 3 0.25 6.35
3:10 pm 15:10 Cloudy with Light Rain 62 16.7 58 14.4 86 86 N 6 9 30.00 1016 3 5 0.06 1.52
3:45 pm 15:45 Cloudy with Rain 62 16.7 59 15 90 90 NW 9 15 30.00 1016 2 3 0.13 3.30
3:54 pm 15:54 Cloudy with Rain 62 16.7 58 14.4 86 86 NW 12 19 30.12 1020 5 8 0.17 4.32
4:54 pm 16:54 Mostly Cloudy 63 17.2 56 13.3 78 78 NW 12 19 30.10 1019 10 16 0.03 0.76
5:54 pm 17:54 Cloudy with Light Rain 64 17.8 57 13.9 78 78 NW 9 15 30.10 1019 10 16 0.02 0.51
6:54 pm 18:54 Cloudy with Light Rain 63 17.2 55 12.8 75 75 NNW 13 20 30.12 1020 7 11 0.01 0.13
7:54 pm 19:54 Cloudy with Light Rain 62 16.7 56 13.3 80 80 WNW 8 13 30.12 1020 10 16 0.01 0.25
8:54 pm 20:54 Cloudy 63 17.2 53 11.7 70 70 NW 9 15 30.12 1020 10 16 0.01 0.25
9:54 pm 21:54 Cloudy with Light Rain 61 16.1 53 11.7 75 75 WNW 10 17 30.13 1020 10 16 0.01 0.13
10:54 pm 22:54 Cloudy with Light Rain 59 15 53 11.7 81 81 W 5 7 30.14 1021 10 16 0.01 0.25

Powered by AerisWeather